Terminal Aerodrome Forecast
Issued by NWS

Home | Current Version | Previous Version | Graphics & Text | Print | Product List | Glossary On
Versions: 1 2 3 4 5 6 7 8 9 10 11 12 13 14 15 16 17 18 19 20 21
000
FTUS43 KOAX 232002 AAA
TAFCDR
TAF AMD
KCDR 232002Z 2320/2418 VRB04KT P6SM BKN050
     FM240300 26006KT P6SM SKC=

USA.gov is the U.S. government's official web portal to all federal, state and local government web resources and services.